Flag for French Polynesia Weather past 2 weeks in Papeete, Tahiti, French Polynesia

Now
70 °F

Partly cloudy.


Feels Like: 70 °F
Forecast: 72 / 78 °F
Wind: 16 mph from South

Location: Tahiti-Faaa

Current Time: Aug 3, 2015 at 1:00:08 AM

Latest Report: Aug 3, 2015 at 12:30 AM


Visibility: 6 mi

Pressure: 29.83 "Hg

Humidity: 100%

Dew point: 70 °F

Location of PapeeteLocation

Historic Weather in Papeete — Graph

°F

Papeete temperature yesterday

Maximum temperature yesterday: 75 °F (at 6:00 AM)
Minimum temperature yesterday: 70 °F (at 11:30 PM)
Average temperature yesterday: 73 °F

Past Weeks' High & Low Weather Summary

 TemperatureHumidityPressure
High86 °F (Jul 20, 3:30 PM)100% (Aug 2, 5:30 PM)30.07 "Hg (Aug 2, 5:30 PM)
Low70 °F (Jul 30, 4:30 AM)51% (Jul 27, 10:00 AM)29.77 "Hg (Aug 2, 2:30 PM)
Average77 °F77%29.91 "Hg
* Reported Midnight between Jul 18 and Jul 19 — Midnight between Aug 2 and Aug 3, Papeete, Weather by CustomWeather, © 2015

Note: Actual official high and low records may vary slightly from our data, if they occured in-between our weather recording intervals... More about our weather records

Advertising

Papeete weather history for previous 24 hours

 ConditionsComfort  
Time TempWeatherWind HumidityBarometerVisibility
12:00 AM
Mon, Aug 3
70 °FLight rain. Partly cloudy.16 mph94%29.83 "Hg2 mi
11:30 PM
Sun, Aug 2
70 °FLight rain. Partly cloudy.17 mph100%29.83 "Hg3 mi
11:00 PM72 °FRain. Partly cloudy.18 mph94%29.83 "Hg2 mi
10:30 PM72 °FLight rain. Partly cloudy.15 mph94%29.83 "Hg3 mi
10:00 PM72 °FLight rain. Partly cloudy.12 mph94%29.83 "Hg4 mi
9:30 PM72 °FLight rain. Partly cloudy.14 mph94%29.83 "Hg5 mi
9:00 PM72 °FLight rain. Overcast.14 mph94%29.83 "Hg4 mi
8:30 PM72 °FOvercast.14 mph94%29.83 "HgN/A
8:00 PM73 °FOvercast.16 mph89%29.83 "HgN/A
7:30 PM72 °FScattered showers. Overcast.12 mph94%29.80 "HgN/A
7:00 PM72 °FOvercast.14 mph94%29.80 "Hg6 mi
6:30 PM73 °FLight rain. Mostly cloudy.16 mph94%29.80 "Hg6 mi
6:00 PM73 °FMostly cloudy.14 mph94%29.80 "Hg4 mi
5:30 PM72 °FLight rain. More clouds than sun.10 mph100%29.80 "Hg4 mi
5:00 PM73 °FLight rain. More clouds than sun.8 mph94%29.80 "Hg2 mi
4:30 PM73 °FBroken clouds.9 mph94%29.77 "Hg5 mi
4:00 PM73 °FLight rain. Broken clouds.10 mph94%29.77 "Hg3 mi
3:30 PM73 °FScattered showers. Broken clouds.10 mph94%29.77 "Hg5 mi
3:00 PM73 °FLight rain. Broken clouds.15 mph94%29.77 "Hg2 mi
2:30 PM73 °FLight rain. Broken clouds.16 mph94%29.77 "Hg2 mi
2:00 PM73 °FLight rain. Broken clouds.15 mph94%29.80 "Hg3 mi
1:30 PM73 °FBroken clouds.16 mph94%29.80 "Hg5 mi
1:00 PM75 °FLight rain. Broken clouds.9 mph94%29.80 "Hg2 mi
12:30 PM75 °FLight rain. Broken clouds.2 mph89%29.83 "Hg3 mi
12:00 PM75 °FLight rain. Broken clouds.2 mph89%29.83 "Hg3 mi
11:00 AM75 °FLight rain. Broken clouds.5 mph89%29.86 "Hg3 mi
10:30 AM75 °FBroken clouds.No wind89%29.86 "Hg5 mi
10:00 AM73 °FLight rain. Broken clouds.2 mph94%29.86 "Hg3 mi
9:30 AM73 °FLight rain. Broken clouds.2 mph94%29.86 "Hg2 mi
9:00 AM75 °FLight rain. Broken clouds.6 mph89%29.86 "Hg2 mi
8:30 AM75 °FScattered showers. Broken clouds.1 mph89%29.86 "HgN/A
8:00 AM75 °FScattered showers. Partly sunny.2 mph89%29.86 "HgN/A
7:30 AM75 °FScattered showers. Partly sunny.No wind89%29.83 "HgN/A
7:00 AM75 °FScattered showers. Partly sunny.3 mph89%29.83 "HgN/A
6:30 AM73 °FScattered showers. Partly sunny.3 mph94%29.83 "HgN/A
6:00 AM75 °FScattered showers. Passing clouds.3 mph89%29.83 "HgN/A
5:30 AM73 °FMostly cloudy.No wind89%29.80 "HgN/A
5:00 AM73 °FMostly cloudy.1 mph89%29.80 "HgN/A
4:30 AM73 °FOvercast.6 mph83%29.80 "HgN/A
4:00 AM73 °FOvercast.8 mph83%29.80 "HgN/A
3:30 AM73 °FMostly cloudy.10 mph83%29.80 "HgN/A
3:00 AM73 °FMostly cloudy.10 mph83%29.80 "HgN/A
2:30 AM73 °FOvercast.7 mph83%29.80 "HgN/A
2:00 AM72 °FOvercast.14 mph88%29.83 "HgN/A
1:30 AM73 °FOvercast.14 mph89%29.83 "HgN/A
1:00 AM72 °FDrizzle. Overcast.13 mph94%29.83 "Hg5 mi
Weather by CustomWeather, © 2015

See weather overviewHow to use our weather pages